Location: Domicella
(40.8833°N, 14.5833°E)
Time: 11:23:12
(UTC+00:00)

Meteor 2-4 Rocket - Pass Details

Date: 15 May 2026
Orbit: 799 x 906 km, 81.2° (Epoch: 8 June)

Event Time Altitude Azimuth Distance (km) Brightness Sun altitude
Exits shadow 23:00:17 62° 39° (NE) 918 3.9 -30.1°
Drops below altitude 10° 23:04:57 10° 13° (NNE) 2,442 7.0 -30.0°
Sets 23:07:24 0° 12° (NNE) 3,396 8.0 -30.0°
